TA2LKM-12 Weather Reports


time (UTC)temp
C
wind
direction
speed
KPH
gust
KPH
rain 1hr
cm
rain 24hr
cm
rain mn
cm
humidity
%
barometer
mb
20260906083002 36 0 0.0 0.0 0.00 0.00 0.00 33 1000.0
20260906080004 35 0 0.0 0.0 0.00 0.00 0.00 35 1000.0
20260906073003 36 0 0.0 0.0 0.00 0.00 0.00 36 999.9
20260906070003 33 0 0.0 0.0 0.00 0.00 0.00 38 999.7
20260906063004 37 0 0.0 0.0 0.00 0.00 0.00 34 999.4
20260906060005 38 0 0.0 0.0 0.00 0.00 0.00 34 999.3
20260906053003 28 0 0.0 0.0 0.00 0.00 0.00 69 999.4
20260906050004 23 0 0.0 0.0 0.00 0.00 0.00 80 999.3
20260906043003 21 0 0.0 0.0 0.00 0.00 0.00 84 999.3
20260906040002 16 0 0.0 0.0 0.00 0.00 0.00 10 999.0
20260906033004 16 0 0.0 0.0 0.00 0.00 0.00 10 998.6
20260906030004 16 0 0.0 0.0 0.00 0.00 0.00 10 998.6
20260906023004 16 0 0.0 0.0 0.00 0.00 0.00 10 998.6
20260906020003 16 0 0.0 0.0 0.00 0.00 0.00 10 998.4
20260906013003 17 0 0.0 0.0 0.00 0.00 0.00 10 998.5
20260906010002 17 0 0.0 0.0 0.00 0.00 0.00 10 998.4
20260906003002 17 0 0.0 0.0 0.00 0.00 0.00 10 998.4
20260906000004 17 0 0.0 0.0 0.00 0.00 0.00 10 998.3
20260905233002 18 0 0.0 0.0 0.00 0.00 0.00 10 998.5
20260905230004 18 0 0.0 0.0 0.00 0.00 0.00 10 998.4
20260905223003 19 0 0.0 0.0 0.00 0.00 0.00 10 998.6
20260905213003 20 0 0.0 0.0 0.00 0.00 0.00 10 998.9
20260905210004 20 0 0.0 0.0 0.00 0.00 0.00 10 999.0
20260905203004 21 0 0.0 0.0 0.00 0.00 0.00 10 999.1
20260905200004 21 0 0.0 0.0 0.00 0.00 0.00 10 999.3
20260905193004 21 0 0.0 0.0 0.00 0.00 0.00 10 999.3
20260905190003 21 0 0.0 0.0 0.00 0.00 0.00 10 999.3
20260905183002 22 0 0.0 0.0 0.00 0.00 0.00 10 999.5
20260905180005 22 0 0.0 0.0 0.00 0.00 0.00 10 999.6
20260905173004 22 0 0.0 0.0 0.00 0.00 0.00 10 999.2
20260905170005 23 0 0.0 0.0 0.00 0.00 0.00 92 999.1
20260905163004 23 0 0.0 0.0 0.00 0.00 0.00 82 998.7
20260905160003 25 0 0.0 0.0 0.00 0.00 0.00 70 998.8
20260905153003 25 0 0.0 0.0 0.00 0.00 0.00 62 998.8
20260905150004 26 0 0.0 0.0 0.00 0.00 0.00 55 998.9
20260905143002 26 0 0.0 0.0 0.00 0.00 0.00 48 998.9
20260905140004 27 0 0.0 0.0 0.00 0.00 0.00 46 999.1
20260905133005 27 0 0.0 0.0 0.00 0.00 0.00 48 999.1
20260905130003 28 0 0.0 0.0 0.00 0.00 0.00 44 999.3
20260905123002 28 0 0.0 0.0 0.00 0.00 0.00 45 999.5
20260905120003 28 0 0.0 0.0 0.00 0.00 0.00 48 999.7
20260905113003 29 0 0.0 0.0 0.00 0.00 0.00 43 999.7
20260905110003 30 0 0.0 0.0 0.00 0.00 0.00 38 999.9
20260905103005 31 0 0.0 0.0 0.00 0.00 0.00 38 1000.1
20260905100003 35 0 0.0 0.0 0.00 0.00 0.00 33 1000.1
20260905093002 32 0 0.0 0.0 0.00 0.00 0.00 42 1000.2
20260905090004 31 0 0.0 0.0 0.00 0.00 0.00 45 1000.5